SCP
0 0 -0 -0 -0 -0 -0 -0 -0 0 0 0 -0 -0 -0 -0 -0 -0 -0 -0 -0 -0 -0 -0 -0 -0 -0 -0 -0 -0 -0 -0 -0 -0 -0 -0 -0 -0 -0 -0 -0 0 -0
-0 -0 -0 -0 -0 -0 -0 0 0 0 0 0 0 -0 -0 -0 -0 -0 -0 -0 -0 -0 -0 -0 -0 -0 -0 -0 -0 -0 -0 -0 -0 0 0 -0 -0 -0 -0 -0 -0 0 0
-0 -0 -0 -0 -0 -0 0 0 0 0 0 0 -0 -0 -0 -0 -0 -0 -0 -0 -0 -0 -0 -0 -0 -0 -0 -0 -0 -0 -0 -0 0 0 0 0 0 -0 -0 -0 0 -0 0
-0 -0 -0 0 -0 0 -0 -0 -0 0 0 0 -0 -0 -0 -0 -0 -0 -0 -0 -0 -0 -0 -0 -0 -0 -0 -0 -0 -0 -0 -0 0 0 0 0 0 0 0 0 0 -0 0
-0 0 -0 0 0 -0 -0 -0 -0 0 0 0 -0 -0 -0 -0 -0 -0 -0 -0 -0 -0 -0 -0 -0 -0 -0 -0 -0 -0 -0 0 0 0 0 0 0 0 0 0 0 0 0
-0 0 0 -0 -0 -0 -0 -0 0 0 0 0 -0 -0 -0 -0 -0 -0 -0 -0 -0 -0 -0 -0 -0 -0 -0 -0 -0 -0 0 0 0 0 0 0 0 0 0 0 0 0 0
0 0 0 0 0 0 0 0 0 -0 -0 -0 -0 -0 -0 -0 -0 -0 -0 -0 -0 -0 -0 -0 -0 -0 -0 -0 -0 -0 0 0 0 0 0 0 0 0 0 0 0 0 0
0 0 0 0 0 0 0 0 0 -0 -0 -0 -0 -0 -0 -0 -0 -0 -0 -0 -0 -0 -0 -0 -0 -0 -0 -0 -0 -0 0 -0 0 0 0 0 0 0 0 0 0 0 0
0 0 0 0 0 0 0 0 0 -0 -0 -0 -0 -0 -0 -0 -0 -0 -0 -0 -0 -0 -0 -0 -0 -0 -0 -0 0 0 0 -0 0 0 0 0 0 0 0 0 0 0 0
0 0 0 0 -0 0 0 0 0 0 -0 -0 -0 -0 -0 -0 -0 -0 -0 -0 -0 -0 -0 -0 -0 -0 -0 -0 0 0 0 0 0 0 0 0 0 0 0 0 0 0 0
0 0 0 0 -0 0 0 0 0 0 0 -0 -0 0 0 0 0 -0 -0 -0 -0 -0 -0 -0 -0 0 0 0 0 0 0 0 0 0 0 0 0 0 0 0 0 0 0
0 -0 0 0 0 0 0 0 0 0 0 0 0 0 0 0 0 -0 -0 -0 -0 -0 -0 0 0 0 0 0 0 0 0 0 0 0 0 0 0 0 0 -0 0 -0 -0
0 0 0 0 0 0 0 0 0 0 0 0 0 0 0 0 0 0 -0 -0 -0 0 0 0 0 0 0 0 0 0 0 0 0 0 0 0 0 0 -0 -0 -0 0 0
-0 0 0 0 0 0 0 0 0 0 0 0 0 0 0 0 0 0 0 0 0 0 0 0 0 0 0 0 0 0 0 0 0 0 0 0 0 0 0 0 0 0 0
-0 -0 0 0 0 0 0 0 0 0 0 0 0 0 0 0 0 0 0 0 0 0 0 0 0 0 0 0 0 0 0 0 0 0 0 0 0 0 0 0 0 0 0
-0 -0 0 0 0 0 0 0 0 0 0 0 0 0 0 0 0 0 0 0 0 0 0 0 0 0 0 0 0 0 0 -0 -0 -0 0 0 0 0 0 0 0 0 0
-0 -0 0 0 0 0 0 0 0 0 0 0 0 0 0 0 0 0 0 0 0 0 0 0 0 0 0 0 0 0 -0 -0 -0 0 0 0 0 0 0 0 0 0 0
0 0 0 0 0 0 0 0 0 0 0 0 0 0 0 0 0 0 0 0 0 0 0 0 0 0 0 0 0 0 0 0 0 0 0 0 0 0 0 0 0 0 0
0 0 0 0 0 0 0 0 0 0 0 0 0 0 0 0 0 0 0 0 0 0 0 0 0 0 0 0 0 0 0 0 0 0 0 0 0 0 0 0 0 0 0
0 0 0 0 0 0 0 0 0 0 0 0 0 0 0 0 0 0 0 0 0 0 0 0 0 0 0 0 0 0 0 0 0 0 0 0 0 0 0 0 0 0 0
0 0 0 0 0 0 0 0 0 0 0 0 0 0 0 0 0 0 0 0 0 0 0 0 0 0 0 0 0 0 0 0 0 0 0 0 0 0 0 0 0 0 0
0 0 0 0 0 0 0 0 0 0 0 0 0 0 0 0 0 0 0 0 0 0 0 0 0 0 0 0 0 0 0 0 0 0 0 0 0 0 0 0 0 0 0
0 0 0 0 0 0 0 0 0 0 0 0 0 0 0 0 0 0 0 0 0 0 0 0 0 0 0 0 0 0 0 0 0 0 0 0 0 0 0 0 0 0 0
0 0 0 0 0 0 0 0 0 0 0 0 0 0 0 0 0 0 0 0 0 0 0 0 0 0 0 0 0 0 0 0 0 0 0 0 0 0 0 0 0 0 0
0 0 0 0 0 0 0 0 0 0 0 0 0 0 0 0 0 0 0 0 0 0 0 0 0 0 0 0 0 0 0 0 0 0 0 0 0 0 0 0 0 0 0
0 0 0 0 0 0 0 0 0 0 0 0 0 0 0 0 0 0 0 0 0 0 0 0 0 0 0 0 0 0 0 0 0 0 0 0 0 0 0 0 0 0 0
Wind_Speed_500mb
31 32 26 13 6 7 14 20 23 20 24 29 25 24 21 21 22 24 34 31 35 36 32 29 26 25 24 23 23 23 24 22 22 27 31 30 38 35 35 34 34 32 33
36 28 24 19 13 11 15 18 20 18 21 24 21 18 18 22 31 34 31 34 34 36 32 31 31 28 27 25 22 22 24 26 27 31 38 40 35 34 33 29 37 36 35
35 30 26 17 15 15 18 21 21 21 21 24 22 20 23 28 33 29 30 32 31 35 33 34 31 30 30 29 28 26 24 23 23 23 33 29 30 30 29 33 38 30 29
36 33 25 20 17 17 21 25 25 24 28 31 27 27 32 35 34 27 31 29 26 35 32 32 33 34 34 33 32 32 32 30 27 33 29 31 29 33 33 30 27 23 24
37 31 27 23 19 21 24 23 26 26 32 37 28 29 35 31 28 25 30 28 29 32 33 31 32 33 36 38 36 34 33 32 33 31 30 30 27 31 33 34 31 33 28
33 29 28 23 21 25 27 24 20 24 29 40 32 27 30 27 28 27 25 30 32 32 30 29 31 34 35 36 37 36 36 33 33 30 30 30 29 33 34 35 35 33 32
36 32 26 23 19 21 29 28 20 21 28 37 34 24 26 25 24 25 26 29 30 29 29 29 29 31 34 34 35 35 35 35 35 33 33 32 32 34 33 32 32 32 31
36 35 30 25 19 20 24 26 25 20 27 32 31 22 23 24 22 24 26 26 27 27 27 27 28 30 31 30 31 32 33 35 36 38 37 35 34 34 33 32 32 31 31
35 32 30 29 21 18 22 24 26 22 24 28 31 22 22 23 24 25 24 23 23 26 26 26 27 26 27 29 30 31 33 33 34 34 34 32 31 31 31 30 29 27 28
35 33 33 31 26 21 22 23 25 23 22 23 25 24 21 22 23 23 22 21 21 24 25 25 24 25 26 27 28 30 31 32 31 31 30 29 30 30 31 32 31 31 31
38 36 35 33 26 22 23 25 24 22 20 21 20 19 18 18 20 20 19 18 19 20 22 23 23 23 24 25 25 27 28 28 28 27 27 26 27 28 29 30 33 33 39
42 42 38 34 30 25 21 23 23 22 21 22 20 18 17 15 16 16 16 16 15 16 16 18 19 20 20 20 21 23 23 22 23 24 25 26 26 27 30 32 32 34 34
43 42 39 37 32 26 23 23 23 22 20 19 18 17 16 15 12 12 12 13 12 12 12 13 15 15 16 18 18 19 19 21 21 23 25 26 28 30 34 35 33 33 35
49 44 40 35 36 30 27 24 22 20 18 16 15 14 13 12 11 9 8 8 8 8 8 8 9 9 10 12 13 17 18 20 21 23 26 29 31 32 34 34 33 34 37
51 47 42 38 38 34 32 28 24 22 20 17 16 14 12 10 9 7 6 4 3 4 4 5 5 6 7 11 15 18 20 20 25 27 28 31 31 32 32 33 35 38 39
50 47 44 42 41 36 33 31 28 24 21 20 19 17 14 12 11 8 6 4 2 1 2 3 5 5 9 15 20 22 25 28 28 30 29 30 29 28 29 29 36 36 39
45 42 42 44 45 41 34 29 28 26 25 24 22 19 19 17 15 12 9 7 5 4 2 1 7 13 18 20 25 27 29 27 28 28 28 24 24 24 29 32 30 38 40
48 47 43 41 41 42 41 38 34 30 28 26 24 23 22 24 16 16 12 9 7 2 2 7 13 17 21 25 28 29 27 27 25 23 18 20 23 26 26 31 36 46 39
52 50 50 48 43 39 37 35 35 33 32 30 27 24 20 13 12 11 10 9 10 9 11 12 16 20 20 23 27 24 24 21 13 13 14 22 24 19 30 33 40 39 39
53 52 51 49 47 44 42 40 39 36 33 31 29 24 20 20 17 15 16 16 14 15 16 18 20 21 22 26 20 19 15 8 11 22 15 19 29 24 36 37 37 34 38
60 57 54 54 52 51 50 49 48 45 37 33 31 27 26 24 22 21 18 20 17 19 20 21 22 23 24 21 21 18 4 5 5 9 25 8 26 37 34 36 38 40 38
67 66 62 59 55 54 52 50 49 46 42 38 33 30 28 28 29 25 24 25 25 25 25 23 23 24 24 19 22 18 3 1 10 6 13 20 31 39 36 32 40 37 42
75 74 71 66 63 60 55 52 52 51 46 43 44 41 38 34 32 29 32 31 31 29 33 30 27 25 24 23 20 10 7 4 24 13 16 28 35 34 31 37 35 42 52
78 77 77 73 71 66 61 63 61 55 52 50 44 43 41 37 38 40 39 38 38 38 34 33 29 29 27 26 20 14 11 14 7 10 24 24 30 35 26 35 31 47 52
71 79 81 79 77 74 71 71 68 64 59 52 56 52 52 47 40 40 41 42 41 40 35 34 31 30 27 24 18 14 13 16 13 12 10 19 29 26 28 32 32 45 48
71 74 77 82 85 81 80 78 76 71 69 71 63 59 57 53 48 42 42 44 42 41 38 33 30 28 26 20 17 14 14 14 17 14 16 16 21 17 20 26 31 44 43
Wind_Direction_500mb
146 143 140 154 111 124 108 115 123 129 137 133 125 116 104 86 84 89 88 87 87 86 85 82 80 74 72 72 70 70 71 70 68 72 71 66 62 61 65 63 62 57 68
149 151 142 133 127 120 113 114 123 135 145 148 143 127 111 97 95 94 94 84 92 85 83 81 78 73 67 66 69 72 74 73 68 69 59 58 68 60 57 60 59 47 53
151 151 146 133 131 124 115 113 114 124 139 145 135 133 121 111 109 104 90 94 81 87 81 78 77 72 69 67 68 71 72 71 67 65 73 61 60 65 52 67 67 59 51
153 148 146 135 127 120 118 118 113 116 119 121 126 126 122 113 109 112 101 89 85 89 82 78 74 71 67 66 68 73 74 73 76 72 66 63 59 51 47 53 60 64 52
151 153 146 137 126 124 120 120 110 114 116 113 113 113 112 118 120 111 103 98 89 84 79 78 76 73 67 65 68 73 72 69 65 64 63 65 54 46 47 48 44 46 43
155 157 146 140 134 138 124 127 117 116 123 118 118 114 117 110 97 94 88 91 86 80 77 79 75 69 68 67 67 69 63 62 65 67 64 54 52 49 46 44 42 38 35
155 158 151 147 137 138 136 133 125 120 121 128 127 125 114 102 99 97 93 88 87 81 76 78 78 72 67 69 68 69 67 66 68 66 61 57 55 50 46 42 38 35 31
159 157 157 153 151 138 142 145 141 125 121 134 118 121 109 104 103 102 95 90 87 85 81 80 76 72 69 69 68 66 65 66 63 63 60 56 55 51 45 41 37 33 29
167 160 161 162 158 145 145 149 156 143 124 133 129 130 109 100 100 100 99 95 90 84 79 77 74 72 70 66 65 65 64 63 63 59 55 49 42 40 33 27 22 20 16
179 169 168 166 166 155 151 148 153 154 139 130 131 129 118 107 103 99 95 93 90 86 82 79 76 72 69 67 66 64 62 58 54 49 44 37 31 27 20 12 6 3 2
180 177 171 173 171 168 161 152 149 149 145 144 139 137 119 108 103 98 100 97 91 85 79 77 75 71 68 64 60 57 53 48 45 39 32 22 16 12 6 0 357 354 351
181 179 176 180 178 176 169 157 153 151 155 154 151 142 134 123 117 115 105 97 88 80 73 70 69 70 68 63 54 46 41 36 35 26 15 6 0 354 351 348 344 341 340
185 187 184 181 181 179 173 170 165 164 160 158 153 147 141 138 132 119 114 104 94 85 75 65 57 56 58 52 45 39 27 20 13 4 357 353 348 345 342 338 337 335 334
195 190 188 187 186 183 183 180 176 173 170 165 160 158 152 150 149 140 124 107 99 91 82 77 72 68 57 48 21 4 5 0 358 353 349 344 339 337 338 339 339 339 338
200 196 192 190 190 190 187 185 189 186 184 184 182 183 175 173 169 166 155 146 107 75 59 51 47 39 24 10 357 356 352 348 342 337 338 339 336 337 338 339 338 331 329
200 201 195 195 194 195 196 192 193 196 199 202 205 202 200 204 205 204 212 216 226 304 16 33 51 22 351 348 337 339 339 337 335 332 334 333 331 337 336 338 335 334 334
201 203 205 201 199 200 201 206 208 209 211 212 220 224 220 220 223 226 231 240 250 262 288 12 336 350 339 332 331 324 323 328 324 325 326 335 340 339 338 333 338 340 333
203 202 205 211 211 207 205 207 211 216 220 220 222 228 235 238 236 235 234 234 231 226 341 343 340 329 326 320 317 320 326 323 321 324 339 353 351 342 346 342 336 331 335
206 207 207 206 211 215 217 218 218 217 221 225 228 238 253 233 247 255 238 234 242 277 300 306 312 317 315 310 315 324 330 326 336 1 355 344 354 357 342 338 337 341 339
209 209 214 213 212 212 215 218 221 223 222 222 234 232 231 241 245 254 255 248 261 267 284 292 304 309 310 308 323 347 342 9 76 3 4 352 360 351 342 342 345 350 347
214 212 214 216 216 215 218 219 220 224 223 231 232 233 241 245 247 255 259 255 268 273 278 289 295 299 299 308 337 354 32 93 92 53 357 29 3 352 349 352 355 356 359
216 219 216 218 219 222 224 228 232 233 229 235 243 243 242 243 245 246 258 261 268 272 279 281 290 295 289 302 321 338 321 238 286 306 356 345 353 353 352 359 357 0 357
218 220 223 220 220 222 225 227 228 229 230 231 235 236 242 240 250 254 255 257 260 270 271 277 281 273 275 291 312 307 328 300 332 318 333 341 350 354 356 360 1 360 353
222 223 226 225 226 225 225 227 229 232 233 237 237 241 240 241 243 252 254 254 257 263 269 272 271 261 263 282 294 281 278 277 301 308 320 336 355 356 4 357 354 353 354
226 227 228 228 229 229 228 230 231 232 235 239 237 236 238 241 243 253 252 257 261 264 265 265 256 251 256 271 272 284 291 302 293 299 299 329 359 360 352 350 352 353 357
228 230 230 229 231 230 231 231 233 234 237 237 236 236 238 242 245 248 255 255 256 261 262 250 242 247 256 255 265 279 300 309 317 326 327 332 349 349 350 350 349 358 2
Wind_Speed_850mb
31 32 26 13 6 7 14 20 23 20 24 29 25 24 21 21 22 24 34 31 35 36 32 29 26 25 24 23 23 23 24 22 22 27 31 30 38 35 35 34 34 32 33
36 28 24 19 13 11 15 18 20 18 21 24 21 18 18 22 31 34 31 34 34 36 32 31 31 28 27 25 22 22 24 26 27 31 38 40 35 34 33 29 37 36 35
35 30 26 17 15 15 18 21 21 21 21 24 22 20 23 28 33 29 30 32 31 35 33 34 31 30 30 29 28 26 24 23 23 23 33 29 30 30 29 33 38 30 29
36 33 25 20 17 17 21 25 25 24 28 31 27 27 32 35 34 27 31 29 26 35 32 32 33 34 34 33 32 32 32 30 27 33 29 31 29 33 33 30 27 23 24
37 31 27 23 19 21 24 23 26 26 32 37 28 29 35 31 28 25 30 28 29 32 33 31 32 33 36 38 36 34 33 32 33 31 30 30 27 31 33 34 31 33 28
33 29 28 23 21 25 27 24 20 24 29 40 32 27 30 27 28 27 25 30 32 32 30 29 31 34 35 36 37 36 36 33 33 30 30 30 29 33 34 35 35 33 32
36 32 26 23 19 21 29 28 20 21 28 37 34 24 26 25 24 25 26 29 30 29 29 29 29 31 34 34 35 35 35 35 35 33 33 32 32 34 33 32 32 32 31
36 35 30 25 19 20 24 26 25 20 27 32 31 22 23 24 22 24 26 26 27 27 27 27 28 30 31 30 31 32 33 35 36 38 37 35 34 34 33 32 32 31 31
35 32 30 29 21 18 22 24 26 22 24 28 31 22 22 23 24 25 24 23 23 26 26 26 27 26 27 29 30 31 33 33 34 34 34 32 31 31 31 30 29 27 28
35 33 33 31 26 21 22 23 25 23 22 23 25 24 21 22 23 23 22 21 21 24 25 25 24 25 26 27 28 30 31 32 31 31 30 29 30 30 31 32 31 31 31
38 36 35 33 26 22 23 25 24 22 20 21 20 19 18 18 20 20 19 18 19 20 22 23 23 23 24 25 25 27 28 28 28 27 27 26 27 28 29 30 33 33 39
42 42 38 34 30 25 21 23 23 22 21 22 20 18 17 15 16 16 16 16 15 16 16 18 19 20 20 20 21 23 23 22 23 24 25 26 26 27 30 32 32 34 34
43 42 39 37 32 26 23 23 23 22 20 19 18 17 16 15 12 12 12 13 12 12 12 13 15 15 16 18 18 19 19 21 21 23 25 26 28 30 34 35 33 33 35
49 44 40 35 36 30 27 24 22 20 18 16 15 14 13 12 11 9 8 8 8 8 8 8 9 9 10 12 13 17 18 20 21 23 26 29 31 32 34 34 33 34 37
51 47 42 38 38 34 32 28 24 22 20 17 16 14 12 10 9 7 6 4 3 4 4 5 5 6 7 11 15 18 20 20 25 27 28 31 31 32 32 33 35 38 39
50 47 44 42 41 36 33 31 28 24 21 20 19 17 14 12 11 8 6 4 2 1 2 3 5 5 9 15 20 22 25 28 28 30 29 30 29 28 29 29 36 36 39
45 42 42 44 45 41 34 29 28 26 25 24 22 19 19 17 15 12 9 7 5 4 2 1 7 13 18 20 25 27 29 27 28 28 28 24 24 24 29 32 30 38 40
48 47 43 41 41 42 41 38 34 30 28 26 24 23 22 24 16 16 12 9 7 2 2 7 13 17 21 25 28 29 27 27 25 23 18 20 23 26 26 31 36 46 39
52 50 50 48 43 39 37 35 35 33 32 30 27 24 20 13 12 11 10 9 10 9 11 12 16 20 20 23 27 24 24 21 13 13 14 22 24 19 30 33 40 39 39
53 52 51 49 47 44 42 40 39 36 33 31 29 24 20 20 17 15 16 16 14 15 16 18 20 21 22 26 20 19 15 8 11 22 15 19 29 24 36 37 37 34 38
60 57 54 54 52 51 50 49 48 45 37 33 31 27 26 24 22 21 18 20 17 19 20 21 22 23 24 21 21 18 4 5 5 9 25 8 26 37 34 36 38 40 38
67 66 62 59 55 54 52 50 49 46 42 38 33 30 28 28 29 25 24 25 25 25 25 23 23 24 24 19 22 18 3 1 10 6 13 20 31 39 36 32 40 37 42
75 74 71 66 63 60 55 52 52 51 46 43 44 41 38 34 32 29 32 31 31 29 33 30 27 25 24 23 20 10 7 4 24 13 16 28 35 34 31 37 35 42 52
78 77 77 73 71 66 61 63 61 55 52 50 44 43 41 37 38 40 39 38 38 38 34 33 29 29 27 26 20 14 11 14 7 10 24 24 30 35 26 35 31 47 52
71 79 81 79 77 74 71 71 68 64 59 52 56 52 52 47 40 40 41 42 41 40 35 34 31 30 27 24 18 14 13 16 13 12 10 19 29 26 28 32 32 45 48
71 74 77 82 85 81 80 78 76 71 69 71 63 59 57 53 48 42 42 44 42 41 38 33 30 28 26 20 17 14 14 14 17 14 16 16 21 17 20 26 31 44 43
Wind_Direction_850mb
146 143 140 154 111 124 108 115 123 129 137 133 125 116 104 86 84 89 88 87 87 86 85 82 80 74 72 72 70 70 71 70 68 72 71 66 62 61 65 63 62 57 68
149 151 142 133 127 120 113 114 123 135 145 148 143 127 111 97 95 94 94 84 92 85 83 81 78 73 67 66 69 72 74 73 68 69 59 58 68 60 57 60 59 47 53
151 151 146 133 131 124 115 113 114 124 139 145 135 133 121 111 109 104 90 94 81 87 81 78 77 72 69 67 68 71 72 71 67 65 73 61 60 65 52 67 67 59 51
153 148 146 135 127 120 118 118 113 116 119 121 126 126 122 113 109 112 101 89 85 89 82 78 74 71 67 66 68 73 74 73 76 72 66 63 59 51 47 53 60 64 52
151 153 146 137 126 124 120 120 110 114 116 113 113 113 112 118 120 111 103 98 89 84 79 78 76 73 67 65 68 73 72 69 65 64 63 65 54 46 47 48 44 46 43
155 157 146 140 134 138 124 127 117 116 123 118 118 114 117 110 97 94 88 91 86 80 77 79 75 69 68 67 67 69 63 62 65 67 64 54 52 49 46 44 42 38 35
155 158 151 147 137 138 136 133 125 120 121 128 127 125 114 102 99 97 93 88 87 81 76 78 78 72 67 69 68 69 67 66 68 66 61 57 55 50 46 42 38 35 31
159 157 157 153 151 138 142 145 141 125 121 134 118 121 109 104 103 102 95 90 87 85 81 80 76 72 69 69 68 66 65 66 63 63 60 56 55 51 45 41 37 33 29
167 160 161 162 158 145 145 149 156 143 124 133 129 130 109 100 100 100 99 95 90 84 79 77 74 72 70 66 65 65 64 63 63 59 55 49 42 40 33 27 22 20 16
179 169 168 166 166 155 151 148 153 154 139 130 131 129 118 107 103 99 95 93 90 86 82 79 76 72 69 67 66 64 62 58 54 49 44 37 31 27 20 12 6 3 2
180 177 171 173 171 168 161 152 149 149 145 144 139 137 119 108 103 98 100 97 91 85 79 77 75 71 68 64 60 57 53 48 45 39 32 22 16 12 6 0 357 354 351
181 179 176 180 178 176 169 157 153 151 155 154 151 142 134 123 117 115 105 97 88 80 73 70 69 70 68 63 54 46 41 36 35 26 15 6 0 354 351 348 344 341 340
185 187 184 181 181 179 173 170 165 164 160 158 153 147 141 138 132 119 114 104 94 85 75 65 57 56 58 52 45 39 27 20 13 4 357 353 348 345 342 338 337 335 334
195 190 188 187 186 183 183 180 176 173 170 165 160 158 152 150 149 140 124 107 99 91 82 77 72 68 57 48 21 4 5 0 358 353 349 344 339 337 338 339 339 339 338
200 196 192 190 190 190 187 185 189 186 184 184 182 183 175 173 169 166 155 146 107 75 59 51 47 39 24 10 357 356 352 348 342 337 338 339 336 337 338 339 338 331 329
200 201 195 195 194 195 196 192 193 196 199 202 205 202 200 204 205 204 212 216 226 304 16 33 51 22 351 348 337 339 339 337 335 332 334 333 331 337 336 338 335 334 334
201 203 205 201 199 200 201 206 208 209 211 212 220 224 220 220 223 226 231 240 250 262 288 12 336 350 339 332 331 324 323 328 324 325 326 335 340 339 338 333 338 340 333
203 202 205 211 211 207 205 207 211 216 220 220 222 228 235 238 236 235 234 234 231 226 341 343 340 329 326 320 317 320 326 323 321 324 339 353 351 342 346 342 336 331 335
206 207 207 206 211 215 217 218 218 217 221 225 228 238 253 233 247 255 238 234 242 277 300 306 312 317 315 310 315 324 330 326 336 1 355 344 354 357 342 338 337 341 339
209 209 214 213 212 212 215 218 221 223 222 222 234 232 231 241 245 254 255 248 261 267 284 292 304 309 310 308 323 347 342 9 76 3 4 352 360 351 342 342 345 350 347
214 212 214 216 216 215 218 219 220 224 223 231 232 233 241 245 247 255 259 255 268 273 278 289 295 299 299 308 337 354 32 93 92 53 357 29 3 352 349 352 355 356 359
216 219 216 218 219 222 224 228 232 233 229 235 243 243 242 243 245 246 258 261 268 272 279 281 290 295 289 302 321 338 321 238 286 306 356 345 353 353 352 359 357 0 357
218 220 223 220 220 222 225 227 228 229 230 231 235 236 242 240 250 254 255 257 260 270 271 277 281 273 275 291 312 307 328 300 332 318 333 341 350 354 356 360 1 360 353
222 223 226 225 226 225 225 227 229 232 233 237 237 241 240 241 243 252 254 254 257 263 269 272 271 261 263 282 294 281 278 277 301 308 320 336 355 356 4 357 354 353 354
226 227 228 228 229 229 228 230 231 232 235 239 237 236 238 241 243 253 252 257 261 264 265 265 256 251 256 271 272 284 291 302 293 299 299 329 359 360 352 350 352 353 357
228 230 230 229 231 230 231 231 233 234 237 237 236 236 238 242 245 248 255 255 256 261 262 250 242 247 256 255 265 279 300 309 317 326 327 332 349 349 350 350 349 358 2